Tracking 19562 objects as of 25-Mar-2019
HD Live streaming from Space Station
objects crossing your sky now

COSMOS 1624

Track COSMOS 1624 now!
10-day predictions
COSMOS 1624 is classified as:


NORAD ID: 15482
Int'l Code: 1985-006A
Perigee: 778.7 km
Apogee: 799.0 km
Inclination: 74.0 °
Period: 100.5 minutes
Semi major axis: 7159 km
RCS: 2.2289 m2 (large)
Launch date: January 17, 1985
Source: Commonwealth of Independent States (former USSR) (CIS)
Launch site: PLESETSK MISSILE AND SPACE COMPLEX (PKMTR)
aabbcc
Your satellite tracking list
Your tracking list is empty




NASA's NSSDC Master Catalog

Two Line Element Set (TLE):
1 15482U 85006A   19083.88899853 +.00000012 +00000-0 +13682-4 0  9995
2 15482 074.0440 339.5495 0014124 152.0034 278.9568 14.33006108785838
Source of the keplerian elements: AFSPC